[[{"header":{"parameterUnit":"m.s-1","parameterCategory":1,"la1":30.2991,"la2":30.254,"lo1":-89.0895,"lo2":-89.0444,"dy":0.0017,"dx":0.0017,"nx":28,"ny":28,"refTime":"2025-08-20T03:00:00:Z","depth":0,"parameterNumber":2,"parameterNumberName":"U-component_of_WINDS"},"data":[0,0,0,0,0,0,0,0,0,0,0,0,0,0,0,0,0,0,0,0,0,0,0,0,0,0,0,0,0,0,0,0,0,0,0,0,0,0,0,0,0,0,0,0,0,0,0,0,0,0,0,0,0,0,0,0,0,0,-0.9137,-0.9136,0,-0.9095,-0.9095,-0.9094,-0.9097,-0.9098,-0.9098,-0.9099,-0.9056,-0.9054,-0.9052,0,0,0,0,0,0,0,0,0,0,0,0,0,-0.9221,-0.9219,-0.9137,-0.9136,-0.9136,-0.9095,-0.9095,-0.9094,-0.9097,-0.9098,-0.9099,-0.9099,-0.9056,-0.9054,-0.9052,0,0,0,0,0,0,0,0,0,0,0,0,0,-0.9182,-0.9219,-0.9137,-0.9132,-0.9132,-0.9095,-0.9095,-0.9094,-0.9097,-0.9098,-0.9099,-0.91,-0.9057,-0.9054,-0.9052,-0.9017,0,0,-0.9044,-0.9043,0,0,0,0,0,0,0,0,-0.9184,-0.9179,-0.9134,-0.9133,-0.9132,-0.9102,-0.9108,-0.9068,-0.9097,-0.911,-0.9099,-0.91,-0.907,-0.9067,-0.9057,-0.9015,-0.9013,-0.9043,-0.9042,-0.9041,-0.904,0,0,0,0,0,0,0,-0.9187,-0.9181,-0.912,-0.9133,-0.9132,-0.9133,-0.9129,-0.9101,-0.9085,-0.9109,-0.9109,-0.9104,-0.907,-0.9059,-0.9056,-0.9012,-0.9044,-0.9041,-0.904,-0.9039,-0.8944,-0.8944,0,0,0,0,0,0,-0.9191,-0.9183,-0.9122,-0.9119,-0.9161,-0.9131,-0.9126,-0.9111,-0.9086,-0.9083,-0.9103,-0.9104,-0.9063,-0.9059,-0.9054,-0.9015,-0.9041,-0.9038,-0.9037,-0.8945,-0.8944,-0.8943,0,0,0,0,0,0,-0.9192,-0.9185,-0.9123,-0.9151,-0.9143,-0.9128,-0.9111,-0.9109,-0.9099,-0.9082,-0.9079,-0.9095,-0.9064,-0.9058,-0.9027,-0.9013,-0.9037,-0.9035,-0.8946,-0.8945,-0.8944,-0.8933,0,0,0,0,0,0,-0.9195,-0.9186,-0.9172,-0.9151,-0.9142,-0.9096,-0.911,-0.9108,-0.9094,-0.9095,-0.9073,-0.907,-0.9064,-0.9031,-0.9025,-0.901,-0.9033,-0.8948,-0.8946,-0.8944,-0.8935,-0.8932,-0.8929,0,0,0,0,0,-0.9198,-0.9169,-0.9171,-0.9163,-0.9124,-0.9095,-0.909,-0.9084,-0.9093,-0.9079,-0.9069,-0.9071,-0.9016,-0.9028,-0.9021,-0.9005,-0.8948,-0.8946,-0.8944,-0.8936,-0.8932,-0.8929,0,0,0,0,0,0,-0.9187,-0.9166,-0.9168,-0.9131,-0.9115,-0.9096,-0.9078,-0.9079,-0.906,-0.9061,-0.9054,-0.9049,-0.9019,-0.9009,-0.9023,-0.8972,-0.8983,-0.898,-0.898,-0.8976,-0.8973,-0.8976,-0.9031,0,0,0,0,0,-0.9181,-0.9159,-0.9142,-0.9112,-0.9104,-0.9092,-0.908,-0.9077,-0.9059,-0.9052,-0.9039,-0.9023,-0.9002,-0.8988,-0.8968,-0.8934,-0.893,-0.892,-0.8917,-0.8914,-0.8911,-0.8896,-0.8892,-0.8936,-0.8936,-0.8936,0,0,-0.9166,-0.9153,-0.9139,-0.9109,-0.9096,-0.9075,-0.9086,-0.9062,-0.9047,-0.9048,-0.902,-0.901,-0.8991,-0.896,-0.8945,-0.895,-0.8899,-0.8912,-0.891,-0.8908,-0.8893,-0.8889,-0.8886,-0.8935,-0.8935,-0.8935,0,0,-0.9131,-0.9117,-0.9092,-0.908,-0.9061,-0.9055,-0.9049,-0.903,-0.9024,-0.8995,-0.8997,-0.8979,-0.8942,-0.893,-0.8919,-0.8884,-0.8886,-0.8877,-0.8862,-0.8847,-0.8844,-0.8841,-0.883,-0.8826,-0.8874,-0.8874,-0.8874,0,-0.9115,-0.9083,-0.9079,-0.9056,-0.9044,-0.9046,-0.9022,-0.901,-0.8985,-0.8978,-0.8984,-0.8941,-0.8928,-0.8896,-0.8888,-0.8878,-0.8872,-0.8879,-0.8844,-0.8841,-0.8838,-0.8828,-0.8824,-0.8874,-0.8874,-0.8874,-0.8874,0,-0.9067,-0.9045,-0.9028,-0.9006,-0.8992,-0.8968,-0.8961,-0.8948,-0.8947,-0.8941,-0.8913,-0.8898,-0.8877,-0.8869,-0.8867,-0.8837,-0.8841,-0.8846,-0.8857,-0.8834,-0.8824,-0.882,-0.8872,-0.8873,-0.8873,-0.8873,0,0,-0.9021,-0.9,-0.8993,-0.8985,-0.8967,-0.895,-0.8928,-0.8908,-0.8898,-0.8882,-0.8865,-0.8836,-0.8842,-0.8829,-0.8826,-0.8813,-0.879,-0.882,-0.882,-0.8817,-0.8759,-0.8756,-0.8751,-0.8791,-0.879,-0.879,-0.8761,0,-0.8984,-0.8946,-0.8943,-0.8908,-0.889,-0.8894,-0.8875,-0.8863,-0.8857,-0.8841,-0.8834,-0.8815,-0.8823,-0.8816,-0.8803,-0.8795,-0.8778,-0.8797,-0.8776,-0.8775,-0.8781,-0.8746,-0.8742,-0.8715,-0.8757,-0.8756,-0.8756,0,-0.8936,-0.8921,-0.8885,-0.8873,-0.8866,-0.8849,-0.8832,-0.8817,-0.8803,-0.88,-0.8789,-0.8789,-0.8768,-0.8781,-0.8753,-0.8766,-0.8758,-0.8753,-0.8752,-0.875,-0.8764,-0.8745,-0.8706,-0.8703,-0.875,-0.875,-0.8751,0,-0.8909,-0.8879,-0.8855,-0.8848,-0.8832,-0.8821,-0.8814,-0.8802,-0.8792,-0.8778,-0.8771,-0.8754,-0.8745,-0.8733,-0.873,-0.8739,-0.8703,-0.8715,-0.8701,-0.8701,-0.8693,-0.8694,-0.8655,-0.8686,-0.8686,-0.8686,-0.8686,0,-0.8869,-0.8847,-0.8843,-0.8828,-0.8806,-0.8803,-0.8781,-0.8775,-0.8765,-0.875,-0.8752,-0.8738,-0.8733,-0.8719,-0.8716,-0.8695,-0.8691,-0.8689,-0.8688,-0.8689,-0.8689,-0.8683,-0.8686,-0.8685,-0.8686,-0.8686,-0.8686,0,-0.8834,-0.883,-0.8805,-0.8794,-0.879,-0.8774,-0.8765,-0.8752,-0.8748,-0.8729,-0.8724,-0.8717,-0.8701,-0.8697,-0.8676,-0.8675,-0.8651,-0.8651,-0.8656,-0.8656,-0.8643,-0.8645,-0.8599,-0.8594,-0.8628,-0.8628,-0.8628,0,-0.8809,-0.8793,-0.8782,-0.8773,-0.8766,-0.875,-0.8741,-0.8739,-0.8729,-0.8716,-0.8704,-0.8689,-0.8676,-0.865,-0.8643,-0.8629,-0.863,-0.8615,-0.8628,-0.863,-0.8632,-0.8634,-0.8633,-0.8613,-0.8613,-0.8612,-0.8612,0,-0.8767,-0.8767,-0.8753,-0.874,-0.8729,-0.8718,-0.8707,-0.87,-0.8697,-0.8686,-0.867,-0.866,-0.8642,-0.8627,-0.8613,-0.8606,-0.8609,-0.8608,-0.8605,-0.8606,-0.8609,-0.8609,-0.865,-0.8609,-0.861,-0.861,-0.861,-0.861,-0.8737,-0.8725,-0.8716,-0.8702,-0.8694,-0.8685,-0.8674,-0.8669,-0.8656,-0.8641,-0.8641,-0.8625,-0.8616,-0.8597,-0.8591,-0.8578,-0.8583,-0.8577,-0.8576,-0.8575,-0.8575,-0.8611,-0.8576,-0.8576,-0.8576,-0.8576,-0.8576,0,-0.8697,-0.8692,-0.8679,-0.8666,-0.8656,-0.8661,-0.865,-0.8641,-0.8627,-0.8618,-0.8607,-0.859,-0.8577,-0.8571,-0.8558,-0.8549,-0.8551,-0.8546,-0.8547,-0.8546,-0.857,-0.8576,-0.8546,-0.8546,-0.8546,-0.8546,-0.8546,-0.8546,-0.8674,-0.8655,-0.8654,-0.8632,-0.8627,-0.8612,-0.8606,-0.8599,-0.8592,-0.8574,-0.8564,-0.856,-0.8553,-0.8541,-0.8529,-0.8528,-0.8524,-0.8519,-0.8518,-0.8541,-0.8544,-0.8547,-0.8552,-0.8518,-0.8518,-0.8495,-0.8495,-0.8495]},{"header":{"parameterUnit":"m.s-1","parameterCategory":1,"la1":30.2991,"la2":30.254,"lo1":-89.0895,"lo2":-89.0444,"dy":0.0017,"dx":0.0017,"nx":28,"ny":28,"refTime":"2025-08-20T03:00:00:Z","depth":0,"parameterNumber":3,"parameterNumberName":"V-component_of_WINDS"},"data":[0,0,0,0,0,0,0,0,0,0,0,0,0,0,0,0,0,0,0,0,0,0,0,0,0,0,0,0,0,0,0,0,0,0,0,0,0,0,0,0,0,0,0,0,0,0,0,0,0,0,0,0,0,0,0,0,0,0,2.7322,2.7322,0,2.7328,2.7328,2.7328,2.7309,2.7308,2.7308,2.7307,2.7311,2.7312,2.7312,0,0,0,0,0,0,0,0,0,0,0,0,0,2.7288,2.7289,2.7322,2.7322,2.7322,2.7328,2.7328,2.7328,2.7309,2.7308,2.7308,2.7307,2.7311,2.7312,2.7312,0,0,0,0,0,0,0,0,0,0,0,0,0,2.7299,2.7289,2.7322,2.7313,2.7312,2.7328,2.7328,2.7328,2.7309,2.7308,2.7307,2.7307,2.7311,2.7311,2.7312,2.7336,0,0,2.7315,2.7316,0,0,0,0,0,0,0,0,2.7299,2.7301,2.7314,2.7314,2.7313,2.7317,2.7318,2.7331,2.7309,2.731,2.7307,2.7306,2.7313,2.7314,2.7317,2.7336,2.7336,2.7315,2.7316,2.7316,2.7317,0,0,0,0,0,0,0,2.7298,2.73,2.7324,2.7315,2.7314,2.7307,2.7308,2.732,2.7317,2.731,2.7309,2.731,2.7313,2.7316,2.7317,2.7336,2.7315,2.7316,2.7317,2.7317,2.737,2.7371,0,0,0,0,0,0,2.7299,2.73,2.7324,2.7324,2.7304,2.7309,2.7309,2.7317,2.7316,2.7316,2.7311,2.7309,2.7315,2.7316,2.7317,2.7342,2.7316,2.7317,2.7318,2.7369,2.737,2.7371,0,0,0,0,0,0,2.7298,2.7301,2.7324,2.7312,2.7314,2.731,2.7318,2.7317,2.732,2.7317,2.7316,2.7315,2.7314,2.7316,2.7331,2.7342,2.7318,2.7319,2.7368,2.737,2.7371,2.7392,0,0,0,0,0,0,2.7297,2.7301,2.7311,2.7312,2.7315,2.7339,2.7319,2.7318,2.7322,2.732,2.7321,2.732,2.7314,2.7329,2.7331,2.7342,2.7319,2.7367,2.7369,2.737,2.7391,2.7394,2.7397,0,0,0,0,0,2.7296,2.7317,2.7312,2.7315,2.7328,2.7339,2.7341,2.7334,2.7324,2.7332,2.733,2.732,2.734,2.7331,2.7333,2.7345,2.7367,2.7368,2.737,2.7389,2.7394,2.7397,0,0,0,0,0,0,2.7318,2.7317,2.7311,2.7334,2.7337,2.7336,2.7347,2.734,2.7345,2.7343,2.7333,2.7333,2.7349,2.7349,2.7338,2.7365,2.7351,2.7354,2.7365,2.7369,2.7372,2.7371,2.732,0,0,0,0,0,2.7325,2.7336,2.7335,2.7354,2.7356,2.7352,2.7357,2.7351,2.7353,2.7354,2.7353,2.7354,2.736,2.7365,2.7371,2.7391,2.7389,2.74,2.7403,2.7406,2.7407,2.7414,2.7418,2.7377,2.7377,2.7377,0,0,2.7341,2.7342,2.7349,2.7359,2.736,2.737,2.7353,2.7364,2.737,2.7356,2.7369,2.7368,2.7369,2.7385,2.7392,2.7385,2.7418,2.7408,2.741,2.741,2.7417,2.7421,2.7424,2.7379,2.7378,2.7378,0,0,2.7373,2.7376,2.7391,2.7393,2.7395,2.7392,2.7395,2.7395,2.7394,2.7407,2.7395,2.7402,2.7414,2.7414,2.7416,2.7445,2.7435,2.7448,2.7464,2.7471,2.7474,2.7477,2.7485,2.7488,2.7449,2.745,2.745,0,2.7391,2.7406,2.74,2.7411,2.7414,2.7402,2.7415,2.7417,2.7421,2.7423,2.7415,2.7428,2.7428,2.7442,2.7449,2.7452,2.7454,2.7447,2.7475,2.7477,2.748,2.7487,2.749,2.7451,2.7451,2.7451,2.745,0,2.7427,2.7437,2.7449,2.7452,2.7457,2.747,2.7463,2.7468,2.7462,2.7459,2.747,2.747,2.7474,2.7477,2.7472,2.749,2.7485,2.7477,2.7462,2.7485,2.7491,2.7494,2.7453,2.7452,2.7452,2.7451,0,0,2.7473,2.7472,2.7476,2.7476,2.7477,2.7484,2.7494,2.7499,2.7502,2.7505,2.7512,2.7521,2.7512,2.7514,2.7508,2.7514,2.7534,2.7504,2.7504,2.7507,2.7551,2.7556,2.756,2.7528,2.7528,2.7529,2.755,0,2.7502,2.7521,2.7514,2.7533,2.754,2.7527,2.7536,2.7536,2.7533,2.7538,2.7534,2.7539,2.7528,2.7529,2.7535,2.753,2.7542,2.7529,2.7532,2.7532,2.753,2.7564,2.757,2.759,2.7553,2.7553,2.7554,0,2.7538,2.7542,2.7561,2.7558,2.7561,2.7569,2.7571,2.7576,2.7575,2.7572,2.7573,2.7565,2.7573,2.756,2.7569,2.756,2.7561,2.7559,2.7559,2.7558,2.7543,2.7561,2.7596,2.7599,2.7558,2.7558,2.7557,0,2.7566,2.7576,2.7588,2.7589,2.7586,2.7592,2.7591,2.7589,2.7591,2.7593,2.7593,2.7596,2.7597,2.7598,2.7589,2.7581,2.7599,2.7586,2.7594,2.7594,2.7597,2.7597,2.7632,2.7602,2.7602,2.7602,2.7601,0,2.7598,2.7609,2.76,2.7607,2.7618,2.761,2.7621,2.7619,2.7617,2.7622,2.7611,2.7616,2.7606,2.7609,2.7602,2.7609,2.761,2.7607,2.7604,2.7606,2.7606,2.7605,2.7603,2.7602,2.7602,2.7602,2.7602,0,2.763,2.7625,2.7636,2.7632,2.7631,2.764,2.7636,2.7641,2.7637,2.7643,2.7644,2.7636,2.7639,2.7631,2.7633,2.7629,2.7638,2.7635,2.7638,2.7637,2.7645,2.7643,2.7679,2.7682,2.7652,2.7652,2.7652,0,2.7649,2.7658,2.7654,2.7657,2.7657,2.7661,2.7663,2.7655,2.7657,2.7655,2.766,2.7662,2.7663,2.7667,2.7661,2.7662,2.7657,2.7669,2.7657,2.7658,2.7654,2.7653,2.7653,2.7671,2.7671,2.7672,2.7672,0,2.7683,2.768,2.7683,2.7685,2.7687,2.7688,2.7688,2.7691,2.7682,2.7684,2.7687,2.7687,2.7689,2.769,2.7689,2.7686,2.7677,2.7676,2.7678,2.7679,2.768,2.7677,2.7643,2.7675,2.7675,2.7674,2.7674,2.7674,2.7708,2.7713,2.7711,2.7715,2.7714,2.7714,2.7718,2.7713,2.7716,2.7716,2.7711,2.7714,2.7711,2.7708,2.7707,2.7708,2.7702,2.7705,2.7705,2.7706,2.7706,2.7681,2.7708,2.7708,2.7708,2.7708,2.7708,0,2.7739,2.7736,2.774,2.774,2.7742,2.7734,2.7733,2.7735,2.7738,2.7736,2.7737,2.7739,2.7739,2.7733,2.7733,2.7735,2.773,2.7734,2.7733,2.7732,2.7713,2.771,2.7738,2.7738,2.7738,2.7738,2.7738,2.7738,2.7755,2.7763,2.7759,2.7766,2.7763,2.7766,2.7766,2.7765,2.7763,2.7766,2.7767,2.7763,2.7758,2.7757,2.7757,2.7755,2.7754,2.7759,2.7756,2.7737,2.7734,2.7731,2.7729,2.776,2.776,2.7775,2.7775,2.7775]}]]